This demonstration page uses our WeatherBlox Daily Observations layout. Learn more.

Left ArrowRight Arrow

41.86663, -103.66717

Hourly Observations for September 15, 2021

Temp ( °F °C ) Dew Point ( °F °C ) Humidity (%) Winds ( mph kmh ) Pressure ( in mb ) Visibility ( mi km ) Precip ( " mm )
12:53 am 00:53 Clear 59 15 50 10 72 72 ESE 10 17 29.88 1012 10 16 0.00 0.00
1:53 am 01:53 Clear 59 15 50 10 72 72 E 10 17 29.87 1011 10 16 0.00 0.00
2:53 am 02:53 Clear 58 14.4 50 10 75 75 E 10 17 29.85 1011 10 16 0.00 0.00
3:53 am 03:53 Clear 57 13.9 50 10 78 78 ESE 9 15 29.84 1010 10 16 0.00 0.00
4:53 am 04:53 Clear 54 12.2 50 10 87 87 E 8 13 29.83 1010 10 16 0.00 0.00
5:53 am 05:53 Clear 54 12.2 49 9.4 83 83 E 6 9 29.84 1011 10 16 0.00 0.00
6:53 am 06:53 Sunny 53 11.7 49 9.4 86 86 ENE 6 9 29.84 1011 10 16 0.00 0.00
7:53 am 07:53 Sunny 59 15 51 10.6 75 75 ESE 7 11 29.84 1011 10 16 0.00 0.00
8:53 am 08:53 Sunny 67 19.4 50 10 55 55 S 3 6 29.83 1010 10 16 0.00 0.00
9:53 am 09:53 Sunny 74 23.3 42 5.6 32 32 W 7 11 29.81 1010 10 16 0.00 0.00
10:53 am 10:53 Sunny 79 26.1 38 3.3 23 23 WNW 10 17 29.80 1009 10 16 0.00 0.00
11:53 am 11:53 Sunny 83 28.3 35 1.7 18 18 W 9 15 29.78 1008 10 16 0.00 0.00
12:53 pm 12:53 Sunny 87 30.6 33 0.6 14 14 WNW 12 19 29.75 1007 10 16 0.00 0.00
1:53 pm 13:53 Sunny 90 32.2 32 0 13 13 N 7 11 29.71 1006 10 16 0.00 0.00
2:53 pm 14:53 Sunny 92 33.3 29 -1.7 10 10 W 12 19 29.68 1005 10 16 0.00 0.00
3:53 pm 15:53 Sunny 92 33.3 30 -1.1 11 11 WNW 10 17 29.66 1005 10 16 0.00 0.00
4:53 pm 16:53 Sunny 92 33.3 30 -1.1 11 11 WNW 6 9 29.67 1005 10 16 0.00 0.00
5:53 pm 17:53 Sunny 91 32.8 31 -0.6 12 12 N 5 7 29.66 1005 10 16 0.00 0.00
6:53 pm 18:53 Sunny 80 26.7 44 6.7 28 28 Calm 29.69 1005 10 16 0.00 0.00
7:53 pm 19:53 Hazy 72 22.2 43 6.1 35 35 S 5 7 29.70 1006 6 10 0.00 0.00
8:53 pm 20:53 Clear 68 20 41 5 38 38 ESE 3 6 29.71 1006 10 16 0.00 0.00
9:53 pm 21:53 Clear 62 16.7 40 4.4 44 44 Calm 29.72 1006 10 16 0.00 0.00
10:53 pm 22:53 Clear 60 15.6 39 3.9 46 46 undefined N/A 29.70 1006 10 16 0.00 0.00
11:53 pm 23:53 Clear 64 17.8 32 0 30 30 S 6 9 29.68 1005 10 16 0.00 0.00

Powered by AerisWeather